owner,sensor,date,latitude,longitude,vertical_datum,wind_speed,wind_to_direction,wind_speed_of_gust,qcFlag 
COMPS,ioos:station:USF.COMPS:FHP:1,2017-12-01T00:00:00Z,28.1530,-82.8010,10.0,4.39,26.22,5.19,'1111122,1111122,1111122' 
COMPS,ioos:station:USF.COMPS:FHP:1,2017-12-01T00:06:00Z,28.1530,-82.8010,10.0,4.63,26.15,5.68,'1111122,1111122,1111122' 
COMPS,ioos:station:USF.COMPS:FHP:1,2017-12-01T00:12:00Z,28.1530,-82.8010,10.0,4.92,24.9,5.68,'1111122,1111122,1111122' 
COMPS,ioos:station:USF.COMPS:FHP:1,2017-12-01T00:18:00Z,28.1530,-82.8010,10.0,5.4,23.06,6.46,'1111122,1111122,1111122' 
COMPS,ioos:station:USF.COMPS:FHP:1,2017-12-01T00:24:00Z,28.1530,-82.8010,10.0,4.91,29.63,6.07,'1111122,1111122,1111122' 
COMPS,ioos:station:USF.COMPS:FHP:1,2017-12-01T00:30:00Z,28.1530,-82.8010,10.0,4.64,30.0,5.68,'1111122,1111122,1111122' 
COMPS,ioos:station:USF.COMPS:FHP:1,2017-12-01T00:36:00Z,28.1530,-82.8010,10.0,4.91,27.3,5.78,'1111122,1111122,1111122' 
COMPS,ioos:station:USF.COMPS:FHP:1,2017-12-01T00:42:00Z,28.1530,-82.8010,10.0,5.1,27.96,6.27,'1111122,1111122,1111122' 
COMPS,ioos:station:USF.COMPS:FHP:1,2017-12-01T00:48:00Z,28.1530,-82.8010,10.0,4.82,27.04,5.78,'1111122,1111122,1111122' 
COMPS,ioos:station:USF.COMPS:FHP:1,2017-12-01T00:54:00Z,28.1530,-82.8010,10.0,4.51,30.32,5.58,'1111122,1111122,1111122' 
COMPS,ioos:station:USF.COMPS:FHP:1,2017-12-01T01:00:00Z,28.1530,-82.8010,10.0,3.93,33.12,4.8,'1111122,1111122,1111122' 
COMPS,ioos:station:USF.COMPS:FHP:1,2017-12-01T01:06:00Z,28.1530,-82.8010,10.0,3.53,33.75,4.5,'1111122,1111122,1111122' 
COMPS,ioos:station:USF.COMPS:FHP:1,2017-12-01T01:12:00Z,28.1530,-82.8010,10.0,3.6,30.77,4.7,'1111122,1111122,1111122' 
COMPS,ioos:station:USF.COMPS:FHP:1,2017-12-01T01:18:00Z,28.1530,-82.8010,10.0,3.16,35.16,4.31,'1111122,1111122,1111122' 
COMPS,ioos:station:USF.COMPS:FHP:1,2017-12-01T01:24:00Z,28.1530,-82.8010,10.0,3.08,33.68,3.72,'1111122,1111122,1111122' 
COMPS,ioos:station:USF.COMPS:FHP:1,2017-12-01T01:30:00Z,28.1530,-82.8010,10.0,3.1,35.98,3.82,'1111122,1111122,1111122' 
COMPS,ioos:station:USF.COMPS:FHP:1,2017-12-01T01:36:00Z,28.1530,-82.8010,10.0,3.13,37.84,4.21,'1111122,1111122,1111122' 
COMPS,ioos:station:USF.COMPS:FHP:1,2017-12-01T01:42:00Z,28.1530,-82.8010,10.0,2.87,40.31,3.91,'1111122,1111122,1111122' 
COMPS,ioos:station:USF.COMPS:FHP:1,2017-12-01T01:48:00Z,28.1530,-82.8010,10.0,2.71,51.44,3.42,'1111122,1111122,1111122' 
COMPS,ioos:station:USF.COMPS:FHP:1,2017-12-01T01:54:00Z,28.1530,-82.8010,10.0,3.1,60.47,3.72,'1111122,1111122,1111122' 
COMPS,ioos:station:USF.COMPS:FHP:1,2017-12-01T02:00:00Z,28.1530,-82.8010,10.0,3.29,62.34,3.82,'1111122,1111122,1111122' 
COMPS,ioos:station:USF.COMPS:FHP:1,2017-12-01T02:06:00Z,28.1530,-82.8010,10.0,3.32,65.39,3.82,'1111122,1111122,1111122' 
COMPS,ioos:station:USF.COMPS:FHP:1,2017-12-01T02:12:00Z,28.1530,-82.8010,10.0,3.38,73.11,4.01,'1111122,1111122,1111122' 
COMPS,ioos:station:USF.COMPS:FHP:1,2017-12-01T02:18:00Z,28.1530,-82.8010,10.0,3.86,80.93,4.5,'1111122,1111122,1111122' 
COMPS,ioos:station:USF.COMPS:FHP:1,2017-12-01T02:24:00Z,28.1530,-82.8010,10.0,3.9,78.07,4.5,'1111122,1111122,1111122' 
COMPS,ioos:station:USF.COMPS:FHP:1,2017-12-01T02:30:00Z,28.1530,-82.8010,10.0,3.98,81.48,5.09,'1111122,1111122,1111122' 
COMPS,ioos:station:USF.COMPS:FHP:1,2017-12-01T02:36:00Z,28.1530,-82.8010,10.0,4.07,83.43,4.8,'1111122,1111122,1111122' 
COMPS,ioos:station:USF.COMPS:FHP:1,2017-12-01T02:42:00Z,28.1530,-82.8010,10.0,4.46,85.89,5.09,'1111122,1111122,1111122' 
COMPS,ioos:station:USF.COMPS:FHP:1,2017-12-01T02:48:00Z,28.1530,-82.8010,10.0,4.27,82.28,5.29,'1111122,1111122,1111122' 
COMPS,ioos:station:USF.COMPS:FHP:1,2017-12-01T02:54:00Z,28.1530,-82.8010,10.0,4.34,77.97,5.19,'1111122,1111122,1111122' 
COMPS,ioos:station:USF.COMPS:FHP:1,2017-12-01T03:00:00Z,28.1530,-82.8010,10.0,4.05,78.39,4.8,'1111122,1111122,1111122' 
COMPS,ioos:station:USF.COMPS:FHP:1,2017-12-01T03:06:00Z,28.1530,-82.8010,10.0,3.97,78.02,4.8,'1111122,1111122,1111122' 
COMPS,ioos:station:USF.COMPS:FHP:1,2017-12-01T03:12:00Z,28.1530,-82.8010,10.0,3.87,79.86,4.6,'1111122,1111122,1111122' 
COMPS,ioos:station:USF.COMPS:FHP:1,2017-12-01T03:18:00Z,28.1530,-82.8010,10.0,3.94,83.59,4.8,'1111122,1111122,1111122' 
COMPS,ioos:station:USF.COMPS:FHP:1,2017-12-01T03:24:00Z,28.1530,-82.8010,10.0,3.94,79.47,4.5,'1111122,1111122,1111122' 
COMPS,ioos:station:USF.COMPS:FHP:1,2017-12-01T03:30:00Z,28.1530,-82.8010,10.0,3.89,79.95,4.8,'1111122,1111122,1111122' 
COMPS,ioos:station:USF.COMPS:FHP:1,2017-12-01T03:36:00Z,28.1530,-82.8010,10.0,3.87,82.55,4.6,'1111122,1111122,1111122' 
COMPS,ioos:station:USF.COMPS:FHP:1,2017-12-01T03:42:00Z,28.1530,-82.8010,10.0,3.74,80.19,4.31,'1111122,1111122,1111122' 
COMPS,ioos:station:USF.COMPS:FHP:1,2017-12-01T03:48:00Z,28.1530,-82.8010,10.0,3.94,81.41,4.9,'1111122,1111122,1111122' 
COMPS,ioos:station:USF.COMPS:FHP:1,2017-12-01T03:54:00Z,28.1530,-82.8010,10.0,4.14,86.54,5.09,'1111122,1111122,1111122' 
COMPS,ioos:station:USF.COMPS:FHP:1,2017-12-01T04:00:00Z,28.1530,-82.8010,10.0,4.03,82.73,4.7,'1111122,1111122,1111122' 
COMPS,ioos:station:USF.COMPS:FHP:1,2017-12-01T04:06:00Z,28.1530,-82.8010,10.0,3.88,77.7,4.5,'1111122,1111122,1111122' 
COMPS,ioos:station:USF.COMPS:FHP:1,2017-12-01T04:12:00Z,28.1530,-82.8010,10.0,3.88,80.18,4.7,'1111122,1111122,1111122' 
COMPS,ioos:station:USF.COMPS:FHP:1,2017-12-01T04:18:00Z,28.1530,-82.8010,10.0,3.93,83.77,4.5,'1111122,1111122,1111122' 
COMPS,ioos:station:USF.COMPS:FHP:1,2017-12-01T04:24:00Z,28.1530,-82.8010,10.0,4.05,83.27,4.7,'1111122,1111122,1111122' 
COMPS,ioos:station:USF.COMPS:FHP:1,2017-12-01T04:30:00Z,28.1530,-82.8010,10.0,3.65,89.56,4.31,'1111122,1111122,1111122' 
COMPS,ioos:station:USF.COMPS:FHP:1,2017-12-01T04:36:00Z,28.1530,-82.8010,10.0,3.7,91.29,4.31,'1111122,1111122,1111122' 
COMPS,ioos:station:USF.COMPS:FHP:1,2017-12-01T04:42:00Z,28.1530,-82.8010,10.0,3.61,87.67,4.41,'1111122,1111122,1111122' 
COMPS,ioos:station:USF.COMPS:FHP:1,2017-12-01T04:48:00Z,28.1530,-82.8010,10.0,4.12,90.0,4.8,'1111122,1111122,1111122' 
COMPS,ioos:station:USF.COMPS:FHP:1,2017-12-01T04:54:00Z,28.1530,-82.8010,10.0,4.08,90.66,4.7,'1111122,1111122,1111122' 
COMPS,ioos:station:USF.COMPS:FHP:1,2017-12-01T05:00:00Z,28.1530,-82.8010,10.0,4.08,82.51,4.99,'1111122,1111122,1111122' 
COMPS,ioos:station:USF.COMPS:FHP:1,2017-12-01T05:06:00Z,28.1530,-82.8010,10.0,3.83,82.7,4.7,'1111122,1111122,1111122' 
COMPS,ioos:station:USF.COMPS:FHP:1,2017-12-01T05:12:00Z,28.1530,-82.8010,10.0,3.58,81.38,4.11,'1111122,1111122,1111122' 
COMPS,ioos:station:USF.COMPS:FHP:1,2017-12-01T05:18:00Z,28.1530,-82.8010,10.0,3.62,80.51,4.21,'1111122,1111122,1111122' 
COMPS,ioos:station:USF.COMPS:FHP:1,2017-12-01T05:24:00Z,28.1530,-82.8010,10.0,3.86,88.48,4.7,'1111122,1111122,1111122' 
COMPS,ioos:station:USF.COMPS:FHP:1,2017-12-01T05:30:00Z,28.1530,-82.8010,10.0,3.97,97.37,4.7,'1111122,1111122,1111122' 
COMPS,ioos:station:USF.COMPS:FHP:1,2017-12-01T05:36:00Z,28.1530,-82.8010,10.0,4.14,94.32,4.9,'1111122,1111122,1111122' 
COMPS,ioos:station:USF.COMPS:FHP:1,2017-12-01T05:42:00Z,28.1530,-82.8010,10.0,3.92,80.6,4.6,'1111122,1111122,1111122' 
COMPS,ioos:station:USF.COMPS:FHP:1,2017-12-01T05:48:00Z,28.1530,-82.8010,10.0,3.89,88.98,4.5,'1111122,1111122,1111122' 
COMPS,ioos:station:USF.COMPS:FHP:1,2017-12-01T05:54:00Z,28.1530,-82.8010,10.0,3.91,85.44,4.7,'1111122,1111122,1111122' 
COMPS,ioos:station:USF.COMPS:FHP:1,2017-12-01T06:00:00Z,28.1530,-82.8010,10.0,3.55,90.18,4.41,'1111122,1111122,1111122' 
COMPS,ioos:station:USF.COMPS:FHP:1,2017-12-01T06:06:00Z,28.1530,-82.8010,10.0,4.09,93.37,4.9,'1111122,1111122,1111122' 
COMPS,ioos:station:USF.COMPS:FHP:1,2017-12-01T06:12:00Z,28.1530,-82.8010,10.0,4.34,102.21,5.09,'1111122,1111122,1111122' 
COMPS,ioos:station:USF.COMPS:FHP:1,2017-12-01T06:18:00Z,28.1530,-82.8010,10.0,3.89,97.18,4.6,'1111122,1111122,1111122' 
COMPS,ioos:station:USF.COMPS:FHP:1,2017-12-01T06:24:00Z,28.1530,-82.8010,10.0,3.4,78.31,4.11,'1111122,1111122,1111122' 
COMPS,ioos:station:USF.COMPS:FHP:1,2017-12-01T06:30:00Z,28.1530,-82.8010,10.0,3.32,78.6,4.11,'1111122,1111122,1111122' 
COMPS,ioos:station:USF.COMPS:FHP:1,2017-12-01T06:36:00Z,28.1530,-82.8010,10.0,4.09,86.8,4.99,'1111122,1111122,1111122' 
COMPS,ioos:station:USF.COMPS:FHP:1,2017-12-01T06:42:00Z,28.1530,-82.8010,10.0,4.66,84.58,5.58,'1111122,1111122,1111122' 
COMPS,ioos:station:USF.COMPS:FHP:1,2017-12-01T06:48:00Z,28.1530,-82.8010,10.0,4.61,83.84,5.29,'1111122,1111122,1111122' 
COMPS,ioos:station:USF.COMPS:FHP:1,2017-12-01T06:54:00Z,28.1530,-82.8010,10.0,4.42,81.84,4.9,'1111122,1111122,1111122' 
COMPS,ioos:station:USF.COMPS:FHP:1,2017-12-01T07:00:00Z,28.1530,-82.8010,10.0,4.94,87.55,5.78,'1111122,1111122,1111122' 
COMPS,ioos:station:USF.COMPS:FHP:1,2017-12-01T07:06:00Z,28.1530,-82.8010,10.0,4.93,86.78,6.07,'1111122,1111122,1111122' 
COMPS,ioos:station:USF.COMPS:FHP:1,2017-12-01T07:12:00Z,28.1530,-82.8010,10.0,4.73,83.9,5.68,'1111122,1111122,1111122' 
COMPS,ioos:station:USF.COMPS:FHP:1,2017-12-01T07:18:00Z,28.1530,-82.8010,10.0,4.8,86.7,5.68,'1111122,1111122,1111122' 
COMPS,ioos:station:USF.COMPS:FHP:1,2017-12-01T07:24:00Z,28.1530,-82.8010,10.0,4.84,85.64,5.48,'1111122,1111122,1111122' 
COMPS,ioos:station:USF.COMPS:FHP:1,2017-12-01T07:30:00Z,28.1530,-82.8010,10.0,4.69,87.38,5.78,'1111122,1111122,1111122' 
COMPS,ioos:station:USF.COMPS:FHP:1,2017-12-01T07:36:00Z,28.1530,-82.8010,10.0,4.69,88.7,5.19,'1111122,1111122,1111122' 
COMPS,ioos:station:USF.COMPS:FHP:1,2017-12-01T07:42:00Z,28.1530,-82.8010,10.0,4.67,81.79,5.58,'1111122,1111122,1111122' 
COMPS,ioos:station:USF.COMPS:FHP:1,2017-12-01T07:48:00Z,28.1530,-82.8010,10.0,4.54,78.37,5.09,'1111122,1111122,1111122' 
COMPS,ioos:station:USF.COMPS:FHP:1,2017-12-01T07:54:00Z,28.1530,-82.8010,10.0,4.21,79.01,4.99,'1111122,1111122,1111122' 
COMPS,ioos:station:USF.COMPS:FHP:1,2017-12-01T08:00:00Z,28.1530,-82.8010,10.0,4.05,79.62,4.9,'1111122,1111122,1111122' 
COMPS,ioos:station:USF.COMPS:FHP:1,2017-12-01T08:06:00Z,28.1530,-82.8010,10.0,3.58,75.61,4.21,'1111122,1111122,1111122' 
COMPS,ioos:station:USF.COMPS:FHP:1,2017-12-01T08:12:00Z,28.1530,-82.8010,10.0,3.38,70.37,4.11,'1111122,1111122,1111122' 
COMPS,ioos:station:USF.COMPS:FHP:1,2017-12-01T08:18:00Z,28.1530,-82.8010,10.0,3.83,65.57,4.41,'1111122,1111122,1111122' 
COMPS,ioos:station:USF.COMPS:FHP:1,2017-12-01T08:24:00Z,28.1530,-82.8010,10.0,3.99,71.07,4.5,'1111122,1111122,1111122' 
COMPS,ioos:station:USF.COMPS:FHP:1,2017-12-01T08:30:00Z,28.1530,-82.8010,10.0,4.0,78.0,4.7,'1111122,1111122,1111122' 
COMPS,ioos:station:USF.COMPS:FHP:1,2017-12-01T08:36:00Z,28.1530,-82.8010,10.0,3.83,85.21,4.41,'1111122,1111122,1111122' 
COMPS,ioos:station:USF.COMPS:FHP:1,2017-12-01T08:42:00Z,28.1530,-82.8010,10.0,3.86,90.63,4.9,'1111122,1111122,1111122' 
COMPS,ioos:station:USF.COMPS:FHP:1,2017-12-01T08:48:00Z,28.1530,-82.8010,10.0,4.43,93.46,5.09,'1111122,1111122,1111122' 
COMPS,ioos:station:USF.COMPS:FHP:1,2017-12-01T08:54:00Z,28.1530,-82.8010,10.0,4.67,91.82,5.29,'1111122,1111122,1111122' 
COMPS,ioos:station:USF.COMPS:FHP:1,2017-12-01T09:00:00Z,28.1530,-82.8010,10.0,3.93,77.07,5.19,'1111122,1111122,1111122' 
COMPS,ioos:station:USF.COMPS:FHP:1,2017-12-01T09:06:00Z,28.1530,-82.8010,10.0,3.04,54.38,3.91,'1111122,1111122,1111122' 
COMPS,ioos:station:USF.COMPS:FHP:1,2017-12-01T09:12:00Z,28.1530,-82.8010,10.0,2.9,55.58,3.33,'1111122,1111122,1111122' 
COMPS,ioos:station:USF.COMPS:FHP:1,2017-12-01T09:18:00Z,28.1530,-82.8010,10.0,3.08,67.42,3.52,'1111122,1111122,1111122' 
COMPS,ioos:station:USF.COMPS:FHP:1,2017-12-01T09:24:00Z,28.1530,-82.8010,10.0,3.25,67.29,4.01,'1111122,1111122,1111122' 
COMPS,ioos:station:USF.COMPS:FHP:1,2017-12-01T09:30:00Z,28.1530,-82.8010,10.0,3.01,53.08,3.52,'1111122,1111122,1111122' 
COMPS,ioos:station:USF.COMPS:FHP:1,2017-12-01T09:36:00Z,28.1530,-82.8010,10.0,3.04,59.88,3.52,'1111122,1111122,1111122' 
COMPS,ioos:station:USF.COMPS:FHP:1,2017-12-01T09:42:00Z,28.1530,-82.8010,10.0,3.24,74.96,3.62,'1111122,1111122,1111122' 
COMPS,ioos:station:USF.COMPS:FHP:1,2017-12-01T09:48:00Z,28.1530,-82.8010,10.0,2.98,83.82,3.42,'1111122,1111122,1111122' 
COMPS,ioos:station:USF.COMPS:FHP:1,2017-12-01T09:54:00Z,28.1530,-82.8010,10.0,3.29,94.04,3.91,'1111122,1111122,1111122' 
COMPS,ioos:station:USF.COMPS:FHP:1,2017-12-01T10:00:00Z,28.1530,-82.8010,10.0,3.25,87.41,3.82,'1111122,1111122,1111122' 
COMPS,ioos:station:USF.COMPS:FHP:1,2017-12-01T10:06:00Z,28.1530,-82.8010,10.0,2.88,74.64,3.33,'1111122,1111122,1111122' 
COMPS,ioos:station:USF.COMPS:FHP:1,2017-12-01T10:12:00Z,28.1530,-82.8010,10.0,2.69,80.24,3.13,'1111122,1111122,1111122' 
COMPS,ioos:station:USF.COMPS:FHP:1,2017-12-01T10:18:00Z,28.1530,-82.8010,10.0,3.52,94.25,4.7,'1111122,1111122,1111122' 
COMPS,ioos:station:USF.COMPS:FHP:1,2017-12-01T10:24:00Z,28.1530,-82.8010,10.0,4.1,96.73,4.8,'1111122,1111122,1111122' 
COMPS,ioos:station:USF.COMPS:FHP:1,2017-12-01T10:30:00Z,28.1530,-82.8010,10.0,3.51,82.93,4.41,'1111122,1111122,1111122' 
COMPS,ioos:station:USF.COMPS:FHP:1,2017-12-01T10:36:00Z,28.1530,-82.8010,10.0,3.49,77.5,4.21,'1111122,1111122,1111122' 
COMPS,ioos:station:USF.COMPS:FHP:1,2017-12-01T10:42:00Z,28.1530,-82.8010,10.0,3.84,94.17,4.5,'1111122,1111122,1111122' 
COMPS,ioos:station:USF.COMPS:FHP:1,2017-12-01T10:48:00Z,28.1530,-82.8010,10.0,3.49,73.57,4.01,'1111122,1111122,1111122' 
COMPS,ioos:station:USF.COMPS:FHP:1,2017-12-01T10:54:00Z,28.1530,-82.8010,10.0,3.62,78.58,4.21,'1111122,1111122,1111122' 
COMPS,ioos:station:USF.COMPS:FHP:1,2017-12-01T11:00:00Z,28.1530,-82.8010,10.0,3.36,86.33,4.21,'1111122,1111122,1111122' 
COMPS,ioos:station:USF.COMPS:FHP:1,2017-12-01T11:06:00Z,28.1530,-82.8010,10.0,2.85,70.49,3.72,'1111122,1111122,1111122' 
COMPS,ioos:station:USF.COMPS:FHP:1,2017-12-01T11:12:00Z,28.1530,-82.8010,10.0,2.95,73.55,3.72,'1111122,1111122,1111122' 
COMPS,ioos:station:USF.COMPS:FHP:1,2017-12-01T11:18:00Z,28.1530,-82.8010,10.0,2.3,54.42,3.03,'1111122,1111122,1111122' 
COMPS,ioos:station:USF.COMPS:FHP:1,2017-12-01T11:24:00Z,28.1530,-82.8010,10.0,3.17,74.99,4.01,'1111122,1111122,1111122' 
COMPS,ioos:station:USF.COMPS:FHP:1,2017-12-01T11:30:00Z,28.1530,-82.8010,10.0,3.69,84.2,4.21,'1111122,1111122,1111122' 
COMPS,ioos:station:USF.COMPS:FHP:1,2017-12-01T11:36:00Z,28.1530,-82.8010,10.0,3.75,71.82,4.41,'1111122,1111122,1111122' 
COMPS,ioos:station:USF.COMPS:FHP:1,2017-12-01T11:42:00Z,28.1530,-82.8010,10.0,3.45,75.77,3.91,'1111122,1111122,1111122' 
COMPS,ioos:station:USF.COMPS:FHP:1,2017-12-01T11:48:00Z,28.1530,-82.8010,10.0,3.68,80.99,4.21,'1111122,1111122,1111122' 
COMPS,ioos:station:USF.COMPS:FHP:1,2017-12-01T11:54:00Z,28.1530,-82.8010,10.0,3.9,85.36,5.09,'1111122,1111122,1111122' 
COMPS,ioos:station:USF.COMPS:FHP:1,2017-12-01T12:00:00Z,28.1530,-82.8010,10.0,4.53,99.17,5.39,'1111122,1111122,1111122' 
COMPS,ioos:station:USF.COMPS:FHP:1,2017-12-01T12:06:00Z,28.1530,-82.8010,10.0,4.22,94.28,5.39,'1111122,1111122,1111122' 
COMPS,ioos:station:USF.COMPS:FHP:1,2017-12-01T12:12:00Z,28.1530,-82.8010,10.0,3.95,88.01,4.6,'1111122,1111122,1111122' 
COMPS,ioos:station:USF.COMPS:FHP:1,2017-12-01T12:18:00Z,28.1530,-82.8010,10.0,3.0,87.17,3.91,'1111122,1111122,1111122' 
COMPS,ioos:station:USF.COMPS:FHP:1,2017-12-01T12:24:00Z,28.1530,-82.8010,10.0,2.38,74.75,3.13,'1111122,1111122,1111122' 
COMPS,ioos:station:USF.COMPS:FHP:1,2017-12-01T12:30:00Z,28.1530,-82.8010,10.0,3.04,77.54,4.01,'1111122,1111122,1111122' 
COMPS,ioos:station:USF.COMPS:FHP:1,2017-12-01T12:36:00Z,28.1530,-82.8010,10.0,2.77,91.59,3.62,'1111122,1111122,1111122' 
COMPS,ioos:station:USF.COMPS:FHP:1,2017-12-01T12:42:00Z,28.1530,-82.8010,10.0,1.94,74.52,2.54,'1111122,1111122,1111122' 
COMPS,ioos:station:USF.COMPS:FHP:1,2017-12-01T12:48:00Z,28.1530,-82.8010,10.0,1.83,44.7,2.35,'1111122,1111122,1111122' 
COMPS,ioos:station:USF.COMPS:FHP:1,2017-12-01T12:54:00Z,28.1530,-82.8010,10.0,1.98,16.76,2.64,'1111122,1111122,1111122' 
COMPS,ioos:station:USF.COMPS:FHP:1,2017-12-01T13:00:00Z,28.1530,-82.8010,10.0,1.58,30.57,2.45,'1111122,1111122,1111122' 
COMPS,ioos:station:USF.COMPS:FHP:1,2017-12-01T13:06:00Z,28.1530,-82.8010,10.0,1.2,46.75,1.56,'1111122,1111122,1111122' 
COMPS,ioos:station:USF.COMPS:FHP:1,2017-12-01T13:12:00Z,28.1530,-82.8010,10.0,0.76,37.87,1.46,'1111122,1111122,1111122' 
COMPS,ioos:station:USF.COMPS:FHP:1,2017-12-01T13:18:00Z,28.1530,-82.8010,10.0,0.99,21.59,1.76,'1111122,1111122,1111122' 
COMPS,ioos:station:USF.COMPS:FHP:1,2017-12-01T13:24:00Z,28.1530,-82.8010,10.0,1.5,24.99,1.86,'1111122,1111122,1111122' 
COMPS,ioos:station:USF.COMPS:FHP:1,2017-12-01T13:30:00Z,28.1530,-82.8010,10.0,1.45,31.78,1.95,'1111122,1111122,1111122' 
COMPS,ioos:station:USF.COMPS:FHP:1,2017-12-01T13:36:00Z,28.1530,-82.8010,10.0,1.02,43.55,1.56,'1111122,1111122,1111122' 
COMPS,ioos:station:USF.COMPS:FHP:1,2017-12-01T13:42:00Z,28.1530,-82.8010,10.0,1.04,25.99,1.46,'1111122,1111122,1111122' 
COMPS,ioos:station:USF.COMPS:FHP:1,2017-12-01T13:48:00Z,28.1530,-82.8010,10.0,1.08,14.81,1.66,'1111122,1111122,1111122' 
COMPS,ioos:station:USF.COMPS:FHP:1,2017-12-01T13:54:00Z,28.1530,-82.8010,10.0,1.03,32.33,1.66,'1111122,1111122,1111122' 
COMPS,ioos:station:USF.COMPS:FHP:1,2017-12-01T14:00:00Z,28.1530,-82.8010,10.0,0.66,15.75,1.17,'1111122,1111122,1111122' 
COMPS,ioos:station:USF.COMPS:FHP:1,2017-12-01T14:06:00Z,28.1530,-82.8010,10.0,1.13,12.32,1.46,'1111122,1111122,1111122' 
COMPS,ioos:station:USF.COMPS:FHP:1,2017-12-01T14:12:00Z,28.1530,-82.8010,10.0,1.51,23.28,1.95,'1111122,1111122,1111122' 
COMPS,ioos:station:USF.COMPS:FHP:1,2017-12-01T14:18:00Z,28.1530,-82.8010,10.0,1.41,18.43,1.95,'1111122,1111122,1111122' 
COMPS,ioos:station:USF.COMPS:FHP:1,2017-12-01T14:24:00Z,28.1530,-82.8010,10.0,1.56,17.25,1.95,'1111122,1111122,1111122' 
COMPS,ioos:station:USF.COMPS:FHP:1,2017-12-01T14:30:00Z,28.1530,-82.8010,10.0,1.66,22.07,2.15,'1111122,1111122,1111122' 
COMPS,ioos:station:USF.COMPS:FHP:1,2017-12-01T14:36:00Z,28.1530,-82.8010,10.0,2.0,21.61,2.74,'1111122,1111122,1111122' 
COMPS,ioos:station:USF.COMPS:FHP:1,2017-12-01T14:42:00Z,28.1530,-82.8010,10.0,2.18,20.43,2.45,'1111122,1111122,1111122' 
COMPS,ioos:station:USF.COMPS:FHP:1,2017-12-01T14:48:00Z,28.1530,-82.8010,10.0,1.93,25.63,2.25,'1111122,1111122,1111122' 
COMPS,ioos:station:USF.COMPS:FHP:1,2017-12-01T14:54:00Z,28.1530,-82.8010,10.0,2.24,20.79,2.64,'1111122,1111122,1111122' 
COMPS,ioos:station:USF.COMPS:FHP:1,2017-12-01T15:00:00Z,28.1530,-82.8010,10.0,2.45,7.03,2.93,'1111122,1111122,1111122' 
COMPS,ioos:station:USF.COMPS:FHP:1,2017-12-01T15:06:00Z,28.1530,-82.8010,10.0,2.23,14.54,2.84,'1111122,1111122,1111122' 
COMPS,ioos:station:USF.COMPS:FHP:1,2017-12-01T15:12:00Z,28.1530,-82.8010,10.0,1.91,14.3,2.25,'1111122,1111122,1111122' 
COMPS,ioos:station:USF.COMPS:FHP:1,2017-12-01T15:18:00Z,28.1530,-82.8010,10.0,1.69,5.52,2.25,'1111122,1111122,1111122' 
COMPS,ioos:station:USF.COMPS:FHP:1,2017-12-01T15:24:00Z,28.1530,-82.8010,10.0,2.08,355.11,2.93,'1111122,1111122,1111122' 
COMPS,ioos:station:USF.COMPS:FHP:1,2017-12-01T15:30:00Z,28.1530,-82.8010,10.0,3.23,358.68,3.72,'1111122,1111122,1111122' 
COMPS,ioos:station:USF.COMPS:FHP:1,2017-12-01T15:36:00Z,28.1530,-82.8010,10.0,2.98,1.27,3.33,'1111122,1111122,1111122' 
COMPS,ioos:station:USF.COMPS:FHP:1,2017-12-01T15:42:00Z,28.1530,-82.8010,10.0,2.66,2.6,3.23,'1111122,1111122,1111122' 
COMPS,ioos:station:USF.COMPS:FHP:1,2017-12-01T15:48:00Z,28.1530,-82.8010,10.0,3.42,357.35,3.91,'1111122,1111122,1111122' 
COMPS,ioos:station:USF.COMPS:FHP:1,2017-12-01T15:54:00Z,28.1530,-82.8010,10.0,3.0,359.65,3.52,'1111122,1111122,1111122' 
COMPS,ioos:station:USF.COMPS:FHP:1,2017-12-01T16:00:00Z,28.1530,-82.8010,10.0,3.23,355.35,4.21,'1111122,1111122,1111122' 
COMPS,ioos:station:USF.COMPS:FHP:1,2017-12-01T16:06:00Z,28.1530,-82.8010,10.0,3.89,352.56,4.41,'1111122,1111122,1111122' 
COMPS,ioos:station:USF.COMPS:FHP:1,2017-12-01T16:12:00Z,28.1530,-82.8010,10.0,3.79,353.76,4.21,'1111122,1111122,1111122' 
COMPS,ioos:station:USF.COMPS:FHP:1,2017-12-01T16:18:00Z,28.1530,-82.8010,10.0,3.93,348.56,4.41,'1111122,1111122,1111122' 
COMPS,ioos:station:USF.COMPS:FHP:1,2017-12-01T16:24:00Z,28.1530,-82.8010,10.0,3.48,354.11,4.11,'1111122,1111122,1111122' 
COMPS,ioos:station:USF.COMPS:FHP:1,2017-12-01T16:30:00Z,28.1530,-82.8010,10.0,3.86,350.33,4.8,'1111122,1111122,1111122' 
COMPS,ioos:station:USF.COMPS:FHP:1,2017-12-01T16:36:00Z,28.1530,-82.8010,10.0,4.11,358.95,4.7,'1111122,1111122,1111122' 
COMPS,ioos:station:USF.COMPS:FHP:1,2017-12-01T16:42:00Z,28.1530,-82.8010,10.0,3.64,4.53,4.11,'1111122,1111122,1111122' 
COMPS,ioos:station:USF.COMPS:FHP:1,2017-12-01T16:48:00Z,28.1530,-82.8010,10.0,3.63,4.18,4.01,'1111122,1111122,1111122' 
COMPS,ioos:station:USF.COMPS:FHP:1,2017-12-01T16:54:00Z,28.1530,-82.8010,10.0,3.84,5.08,4.21,'1111122,1111122,1111122' 
COMPS,ioos:station:USF.COMPS:FHP:1,2017-12-01T17:00:00Z,28.1530,-82.8010,10.0,3.06,6.2,3.82,'1111122,1111122,1111122' 
COMPS,ioos:station:USF.COMPS:FHP:1,2017-12-01T17:06:00Z,28.1530,-82.8010,10.0,3.17,4.89,3.42,'1111122,1111122,1111122' 
COMPS,ioos:station:USF.COMPS:FHP:1,2017-12-01T17:12:00Z,28.1530,-82.8010,10.0,2.99,356.37,3.42,'1111122,1111122,1111122' 
COMPS,ioos:station:USF.COMPS:FHP:1,2017-12-01T17:18:00Z,28.1530,-82.8010,10.0,3.74,1.24,4.31,'1111122,1111122,1111122' 
COMPS,ioos:station:USF.COMPS:FHP:1,2017-12-01T17:24:00Z,28.1530,-82.8010,10.0,3.98,1.2,4.5,'1111122,1111122,1111122' 
COMPS,ioos:station:USF.COMPS:FHP:1,2017-12-01T17:30:00Z,28.1530,-82.8010,10.0,4.25,0.0,4.8,'1111122,1114422,1111122' 
COMPS,ioos:station:USF.COMPS:FHP:1,2017-12-01T17:36:00Z,28.1530,-82.8010,10.0,4.7,355.69,5.09,'1111122,1111122,1111122' 
COMPS,ioos:station:USF.COMPS:FHP:1,2017-12-01T17:42:00Z,28.1530,-82.8010,10.0,4.81,356.94,5.19,'1111122,1111122,1111122' 
COMPS,ioos:station:USF.COMPS:FHP:1,2017-12-01T17:48:00Z,28.1530,-82.8010,10.0,4.48,0.07,4.99,'1111122,1111122,1111122' 
COMPS,ioos:station:USF.COMPS:FHP:1,2017-12-01T17:54:00Z,28.1530,-82.8010,10.0,4.74,358.85,5.29,'1111122,1111122,1111122' 
COMPS,ioos:station:USF.COMPS:FHP:1,2017-12-01T18:00:00Z,28.1530,-82.8010,10.0,4.71,356.27,5.39,'1111122,1111122,1111122' 
COMPS,ioos:station:USF.COMPS:FHP:1,2017-12-01T18:06:00Z,28.1530,-82.8010,10.0,4.38,350.77,4.7,'1111122,1111122,1111122' 
COMPS,ioos:station:USF.COMPS:FHP:1,2017-12-01T18:12:00Z,28.1530,-82.8010,10.0,4.72,351.65,5.29,'1111122,1111122,1111122' 
COMPS,ioos:station:USF.COMPS:FHP:1,2017-12-01T18:18:00Z,28.1530,-82.8010,10.0,4.99,353.72,5.78,'1111122,1111122,1111122' 
COMPS,ioos:station:USF.COMPS:FHP:1,2017-12-01T18:24:00Z,28.1530,-82.8010,10.0,5.2,355.38,5.78,'1111122,1111122,1111122' 
COMPS,ioos:station:USF.COMPS:FHP:1,2017-12-01T18:30:00Z,28.1530,-82.8010,10.0,4.99,352.06,5.48,'1111122,1111122,1111122' 
COMPS,ioos:station:USF.COMPS:FHP:1,2017-12-01T18:36:00Z,28.1530,-82.8010,10.0,5.23,3.18,5.78,'1111122,1111122,1111122' 
COMPS,ioos:station:USF.COMPS:FHP:1,2017-12-01T18:42:00Z,28.1530,-82.8010,10.0,4.9,2.08,5.39,'1111122,1111122,1111122' 
COMPS,ioos:station:USF.COMPS:FHP:1,2017-12-01T18:48:00Z,28.1530,-82.8010,10.0,4.05,357.09,4.41,'1111122,1111122,1111122' 
COMPS,ioos:station:USF.COMPS:FHP:1,2017-12-01T18:54:00Z,28.1530,-82.8010,10.0,4.12,2.28,4.7,'1111122,1111122,1111122' 
COMPS,ioos:station:USF.COMPS:FHP:1,2017-12-01T19:00:00Z,28.1530,-82.8010,10.0,4.67,353.24,5.19,'1111122,1111122,1111122' 
COMPS,ioos:station:USF.COMPS:FHP:1,2017-12-01T19:06:00Z,28.1530,-82.8010,10.0,4.69,351.87,5.39,'1111122,1111122,1111122' 
COMPS,ioos:station:USF.COMPS:FHP:1,2017-12-01T19:12:00Z,28.1530,-82.8010,10.0,5.4,353.28,6.37,'1111122,1111122,1111122' 
COMPS,ioos:station:USF.COMPS:FHP:1,2017-12-01T19:18:00Z,28.1530,-82.8010,10.0,5.89,353.57,6.56,'1111122,1111122,1111122' 
COMPS,ioos:station:USF.COMPS:FHP:1,2017-12-01T19:24:00Z,28.1530,-82.8010,10.0,5.79,350.49,6.56,'1111122,1111122,1111122' 
COMPS,ioos:station:USF.COMPS:FHP:1,2017-12-01T19:30:00Z,28.1530,-82.8010,10.0,5.66,353.45,6.46,'1111122,1111122,1111122' 
COMPS,ioos:station:USF.COMPS:FHP:1,2017-12-01T19:36:00Z,28.1530,-82.8010,10.0,4.94,352.47,5.68,'1111122,1111122,1111122' 
COMPS,ioos:station:USF.COMPS:FHP:1,2017-12-01T19:42:00Z,28.1530,-82.8010,10.0,4.52,350.58,5.29,'1111122,1111122,1111122' 